Location: Newark
(44.3333°N, 7.6167°E)
Time: 07:46:23
(UTC+00:00)

ISS - Visible Passes

Search period start: 18 November 2019 00:00
Search period end: 28 November 2019 00:00
Orbit: 412 x 421 km, 51.6° (Epoch: 18 November)

Date Brightness Start Highest point End Pass type
(mag) Time Alt. Az. Time Alt. Az. Time Alt. Az.
20 Nov -1.3 17:28:44 10° SSE 17:29:10 11° SSE 17:29:10 11° SSE visible
21 Nov -1.6 18:14:38 10° SW 18:16:02 22° SSW 18:16:02 22° SSW visible
22 Nov -2.7 17:26:36 10° SSW 17:29:34 30° SE 17:29:52 29° SE visible
23 Nov -1.9 16:38:55 10° S 16:41:18 18° SE 16:43:36 10° E visible
23 Nov -2.2 18:14:23 10° WSW 18:16:31 36° WSW 18:16:31 36° WSW visible
24 Nov -3.8 17:25:56 10° SW 17:29:16 77° SSE 17:30:10 45° ENE visible
25 Nov -3.2 16:37:40 10° SW 16:40:52 46° SE 16:43:46 12° ENE visible
25 Nov -1.9 18:14:33 10° W 18:16:40 28° WNW 18:16:40 28° WNW visible
26 Nov -3.2 17:25:51 10° W 17:29:07 48° NNW 17:30:11 34° NNE visible
27 Nov -3.7 16:37:15 10° WSW 16:40:36 73° NNW 16:43:40 12° NE visible
27 Nov -1.5 18:14:52 10° WNW 18:16:34 21° NW 18:16:34 21° NW visible
